Preview of NWS' New Version of Forecast
This preview is not operational and should not be used for support decisions.
Latest weather observations around

Canton, Cherokee County Airport (KCNI)

Using English Units (Switch to International System of Units)
Date/ Time (EDT) Wind (mph) Vis. (mi) Weather Sky Cond. Temp (°F) Rel. Humidity Wind Chill (°F) Heat Index (°F) Pressure Precip. (in)
Air Dwpt 6 hour Altimeter (inHg) Sea level (inHg) 1 hr 3 hr 6 hr
Max Min
Jul 22 16:15 WSW 6 10 Partly Cloudy SCT041 88 64     46%   89 29.98        
Jul 22 15:55 SW 6 10 Partly Cloudy SCT043 SCT060 SCT075 88 64     46%   89 29.99        
Jul 22 15:35 SW 8 10 Partly Cloudy SCT043 SCT060 SCT075 90 64     43%   91 30        
Jul 22 15:15 WSW 8 10 Mostly Cloudy BKN043 BKN120 88 64     46%   89 30.01        
Jul 22 14:55 SW 10 10 Partly Cloudy SCT039 SCT120 88 64     46%   89 30.02        
Jul 22 14:35   10 Partly Cloudy SCT039 SCT060 88 64     46%   89 30.02        
Jul 22 14:15 SSW 10 10 Partly Cloudy SCT039 88 64     46%   89 30.02        
Jul 22 13:55 SW 7 10 Clear CLR 86 66     52%   88 30.03        
Jul 22 13:35 SSW 8 10 Partly Cloudy SCT110 86 64     49%   88 30.04        
Jul 22 13:15 SSW 9 10 Mostly Cloudy SCT032 BKN110 86 66     52%   88 30.05        
Jul 22 12:55 SW 6 10 Mostly Cloudy SCT032 BKN095 84 68     58%   87 30.05        
Jul 22 12:35 SW 5 10 Mostly Cloudy SCT031 BKN095 82 68     62%   85 30.06        
Jul 22 12:15 W 8 10 Mostly Cloudy SCT026 SCT047 BKN095 82 68     62%   85 30.07        
Jul 22 11:55 W 8 10 Partly Cloudy SCT024 SCT035 SCT047 82 68     62%   85 30.06        
Jul 22 11:35 SW 8 10 Mostly Cloudy SCT024 BKN035 BKN055 82 70     66%   86 30.07        
Jul 22 11:15 WSW 8 10 Mostly Cloudy BKN110 81 70     70%   84 30.07        
Jul 22 10:55 W 7 10 Cloudy SCT016 SCT085 OVC110 81 70     70%   84 30.07        
Jul 22 10:35 WSW 6 10 Cloudy SCT014 SCT085 OVC110 81 72     74%   85 30.07        
Jul 22 10:15 W 7 10 Cloudy SCT014 BKN085 OVC110 79 72     79%   82 30.08        
Jul 22 09:55 WSW 3 10 Cloudy SCT014 OVC075 79 72     79%   82 30.08        
Jul 22 09:35 SW 5 10 Mostly Cloudy SCT012 BKN075 79 72     79%   82 30.08        
Jul 22 09:15 SSW 3 10 Mostly Cloudy SCT010 BKN065 BKN110 79 72     79%   82 30.08        
Jul 22 08:55 Calm 10 Mostly Cloudy SCT008 BKN065 BKN080 77 73     89%   79 30.08        
Jul 22 08:35 Calm 10 Clear CLR 75 72     89%   77 30.08        
Jul 22 08:15 Calm 10 Partly Cloudy SCT100 73 72     94%   75 30.08        
Jul 22 07:55 Calm 10 Clear CLR 72 72     100%   73 30.08        
Jul 22 07:35 Calm 7 Clear CLR 72 72     100%   73 30.07        
Jul 22 07:15 Calm 10 Mostly Cloudy BKN002 SCT120 72 72     100%   73 30.06        
Jul 22 06:55 Calm 2.5 Fog/Mist BKN002 BKN120 72 72     100%   73 30.06        
Jul 22 06:35 Calm 10 Partly Cloudy SCT070 72 72     100%   73 30.05        
Jul 22 06:15 Calm 10 Partly Cloudy SCT070 72 72     100%   73 30.04        
Jul 22 05:55 Calm 10 Partly Cloudy SCT002 SCT031 72 72     100%   73 30.04        
Jul 22 05:35 Calm 0.75 Fog/Mist BKN002 BKN110 72 72     100%   73 30.03        
Jul 22 05:15 Calm 2.5 Fog/Mist CLR 70 70     100%     30.02        
Jul 22 04:55 Calm 10 Partly Cloudy SCT002 72 72     100%   73 30.03        
Jul 22 04:35 Calm 5 Fog/Mist CLR 72 72     100%   73 30.02        
Jul 22 04:15 Calm 10 Clear CLR 72 72     100%   73 30.03        
Jul 22 03:55 Calm 10 Clear CLR 72 72     100%   73 30.03        
Jul 22 03:35 Calm 4 Fog/Mist CLR 72 72     100%   73 30.03        
Jul 22 03:15 Calm 10 Clear CLR 72 72     100%   73 30.04        
Jul 22 02:55 Calm 7 Clear CLR 72 72     100%   73 30.04        
Jul 22 02:35 Calm 10 Partly Cloudy SCT060 72 72     100%   73 30.05        
Jul 22 02:15 Calm 10 Mostly Cloudy SCT042 BKN060 72 72     100%   73 30.06        
Jul 22 01:55 Calm 7 Partly Cloudy SCT042 SCT048 SCT060 72 72     100%   73 30.06        
Jul 22 01:35 Calm 10 Partly Cloudy SCT045 SCT050 73 72     94%   75 30.06        
Jul 22 01:15 Calm 10 Mostly Cloudy BKN046 73 73     100%   75 30.06        
Jul 22 00:55 Calm 10 Clear CLR 73 72     94%   75 30.07        
Jul 22 00:35 Calm 10 Clear CLR 73 72     94%   75 30.07        
Jul 22 00:15 Calm 10 Clear CLR 75 72     89%   77 30.07        
Jul 21 23:55 Calm 10 Clear CLR 75 73     94%   77 30.07        
Jul 21 23:35 Calm 10 Clear CLR 73 73     100%   75 30.07        
Jul 21 23:15 Calm 10 Clear CLR 75 72     89%   77 30.07        
Jul 21 22:55 Calm 10 Clear CLR 79 72     79%   82 30.07        
Jul 21 22:35 Calm 10 Clear CLR 79 72     79%   82 30.07        
Jul 21 22:15 Calm 10 Clear CLR 81 72     74%   85 30.07        
Jul 21 21:55 Calm 10 Clear CLR 81 70     70%   84 30.06        
Jul 21 21:35 Calm 10 Clear CLR 82 70     66%   86 30.06        
Jul 21 21:15 Calm 10 Clear CLR 82 70     66%   86 30.05        
Jul 21 20:55 Calm 10 Clear CLR 82 68     62%   85 30.04        
Jul 21 20:35 Calm 10 Clear CLR 82 70     66%   86 30.04        
Jul 21 20:15 Calm 10 Clear CLR 86 68     55%   89 30.04        
Jul 21 19:55 Calm 10 Clear CLR 86 68     55%   89 30.04        
Jul 21 19:35 SW 3 10 Clear CLR 86 64     49%   88 30.04        
Jul 21 19:15 SW 5 10 Clear CLR 88 66     49%   90 30.04        
Jul 21 18:55 SSW 5 10 Partly Cloudy SCT043 SCT049 88 64     46%   89 30.04        
Jul 21 18:35 SSW 3 10 Clear CLR 88 64     46%   89 30.04        
Jul 21 18:15 Calm 10 Clear CLR 88 64     46%   89 30.04        
Jul 21 17:55 SW 5 10 Partly Cloudy SCT042 88 66     49%   90 30.05        
Jul 21 17:35 SSW 6 10 Partly Cloudy SCT042 88 64     46%   89 30.05        
Jul 21 17:15 SSW 3 10 Partly Cloudy SCT048 SCT060 88 64     46%   89 30.04        
Jul 21 16:55 SSW 5 10 Mostly Cloudy BKN041 BKN048 BKN060 88 66     49%   90 30.05        
Jul 21 16:35 SSE 5 10 Mostly Cloudy BKN041 BKN047 88 64     46%   89 30.06        
Jul 21 16:15 Calm 10 Partly Cloudy SCT041 88 64     46%   89 30.06        
Jul 21 15:55 SSW 7 10 Partly Cloudy SCT038 88 64     46%   89 30.07        
Jul 21 15:35 SSW 7 10 Partly Cloudy SCT036 86 66     52%   88 30.08        
Jul 21 15:15 WSW 6 10 Partly Cloudy SCT038 SCT044 86 66     52%   88 30.08        
Jul 21 14:55 S 6 10 Partly Cloudy SCT036 SCT042 SCT050 86 66     52%   88 30.09        
Jul 21 14:35 SW 8 10 Partly Cloudy SCT034 SCT042 SCT050 84 66     55%   87 30.1        
Jul 21 14:15 SSW 7 10 Partly Cloudy SCT032 SCT039 SCT050 86 68     55%   89 30.11        
Jul 21 13:55 SW 8 10 Partly Cloudy SCT030 SCT050 SCT065 84 66     55%   87 30.12        
Jul 21 13:35 S 5 10 Partly Cloudy SCT028 SCT035 SCT050 82 68     62%   85 30.12        
Jul 21 13:15 SSW 6 10 Mostly Cloudy BKN026 BKN037 82 68     62%   85 30.13        
Jul 21 12:55 S 7 10 Mostly Cloudy BKN024 BKN033 BKN046 82 68     62%   85 30.13        
Jul 21 12:35 S 8 10 Partly Cloudy SCT026 SCT050 82 68     62%   85 30.13        
Jul 21 12:15 SSW 8 10 Mostly Cloudy SCT024 SCT044 BKN050 81 68     66%   83 30.13        
Jul 21 11:55 W 5 10 Partly Cloudy SCT022 81 68     66%   83 30.13        
Jul 21 11:35 Calm 10 Partly Cloudy SCT014 SCT029 SCT043 79 70     74%   80 30.13        
Jul 21 11:15 SW 8 10 Mostly Cloudy SCT008 SCT012 BKN022 79 72     79%   82 30.13        
Jul 21 10:55 SW 5 7 Cloudy BKN010 BKN015 OVC022 77 73     89%   79 30.13        
Jul 21 10:35 WSW 3 10 Cloudy BKN010 BKN017 OVC022 75 75     100%   77 30.13        
Jul 21 10:15 Calm 10 Cloudy SCT006 BKN012 OVC017 73 73     100%   75 30.13        
Jul 21 09:55 Calm 7 Cloudy SCT004 OVC010 73 73     100%   75 30.13        
Jul 21 09:35 Calm 4 Fog/Mist BKN002 OVC009 73 73     100%   75 30.12        
Jul 21 09:15 SSW 3 2.5 Fog/Mist OVC002 72 72     100%   73 30.12        
Jul 21 08:55 SSW 3 4 Fog/Mist OVC004 72 72     100%   73 30.12        
Jul 21 08:35 Calm 1 Fog/Mist OVC002 72 72     100%   73 30.12        
Jul 21 08:15 Calm 0.25 Fog OVC002 72 72     100%   73 30.12        
Jul 21 07:55 Calm 0.25 Fog OVC002 72 72     100%   73 30.13        
Jul 21 07:35 Calm 0.25 Fog OVC002 72 72     100%   73 30.12        
Jul 21 07:15 Calm 0.5 Fog OVC002 72 72     100%   73 30.11        
Jul 21 06:55 Calm 0.5 Fog OVC002 72 72     100%   73 30.1        
Jul 21 06:35 Calm 1 Fog/Mist OVC002 72 72     100%   73 30.09        
Jul 21 06:15 Calm 1 Fog/Mist OVC002 72 72     100%   73 30.1        
Jul 21 05:55 Calm 0.5 Fog OVC002 72 72     100%   73 30.09        
Jul 21 05:35 Calm 0.25 Fog OVC002 72 72     100%   73 30.09        
Jul 21 05:15 Calm 0.25 Fog OVC002 72 72     100%   73 30.08        
Jul 21 04:55 Calm 0.25 Fog OVC002 72 72     100%   73 30.08        
Jul 21 04:35 Calm 0.75 Fog/Mist OVC002 72 72     100%   73 30.07        
Jul 21 04:15 Calm 0.25 Fog OVC002 72 72     100%   73 30.06        
Jul 21 03:55 Calm 0.25 Fog OVC002 72 72     100%   73 30.06        
Jul 21 03:35 Calm 0.5 Fog OVC002 72 72     100%   73 30.05        
Jul 21 03:15 Calm 0.5 Fog OVC002 72 72     100%   73 30.06        
Jul 21 02:55 Calm 0.25 Fog OVC002 72 72     100%   73 30.07        
Jul 21 02:35 Calm 0.25 Fog OVC002 72 72     100%   73 30.06        
Jul 21 02:15 Calm 1 Fog/Mist OVC002 72 72     100%   73 30.06        
Jul 21 01:55 Calm 3 Fog/Mist BKN002 72 72     100%   73 30.06        
Jul 21 01:35 Calm 7 Mostly Cloudy BKN002 72 72     100%   73 30.07        
Jul 21 01:15 Calm 1.25 Fog/Mist OVC002 72 72     100%   73 30.08        
Jul 21 00:55 Calm 7 Mostly Cloudy BKN002 72 72     100%   73 30.08        
Jul 21 00:35 Calm 7 Mostly Cloudy BKN002 72 72     100%   73 30.09        
Jul 21 00:15 Calm 4 Fog/Mist BKN002 BKN110 72 72     100%   73 30.1        
Jul 20 23:55 ESE 5 2 Fog/Mist OVC002 73 73     100%   75 30.11        
Jul 20 23:35 Calm 2 Fog/Mist OVC002 73 73     100%   75 30.09        
Jul 20 23:15 Calm 7 Partly Cloudy SCT002 SCT090 73 73     100%   75 30.09        
Jul 20 22:55 Calm 3 Fog/Mist SCT090 SCT120 73 73     100%   75 30.09        
Jul 20 22:35 Calm 10 Mostly Cloudy BKN090 72 72     100%   73 30.1        
Jul 20 22:15 Calm 1.5 Light Drizzle SCT060 BKN090 BKN110 72 72     100%   73 30.1        
Jul 20 21:55 Calm 7 Light Rain SCT070 BKN100 OVC120 72 72     100%   73 30.09        
Jul 20 21:35 Calm 5 Rain SCT046 BKN080 OVC090 72 72     100%   73 30.09        
Jul 20 21:15 NW 3 2.5 Rain SCT004 BKN044 OVC080 72 72     100%   73 30.09        
Jul 20 20:55 SW 6 2 Heavy Rain BKN008 OVC027 73 73     100%   75 30.1        
Jul 20 20:35   10 Rain BKN009 BKN014 OVC070 77 72     83%   78 30.08        
Jul 20 20:15   10 Cloudy SCT013 BKN050 OVC090 82 73     74%   88 30.06        
Jul 20 19:55 Calm 10 Mostly Cloudy SCT050 BKN070 81 73     79%   85 30.05        
Jul 20 19:35 Calm 10 Partly Cloudy SCT049 SCT055 SCT100 82 72     70%   87 30.04        
Jul 20 19:15 Calm 10 Mostly Cloudy SCT033 SCT047 BKN100 82 72     70%   87 30.03        
Jul 20 18:55 SSW 6 10 Partly Cloudy SCT033 SCT100 84 70     62%   88 30.03        
Jul 20 18:35 SW 3 10 Clear CLR 86 70     59%   91 30.04        
Jul 20 18:15 Calm 10 Clear CLR 86 70     59%   91 30.04        
Jul 20 17:55 Calm 10 Clear CLR 86 70     59%   91 30.04        
Jul 20 17:35 SSW 5 10 Clear CLR 86 68     55%   89 30.05        
Jul 20 17:15 SSW 6 10 Clear CLR 86 68     55%   89 30.06        
Jul 20 16:55 WSW 7 10 Partly Cloudy SCT036 86 70     59%   91 30.06        
Jul 20 16:35 WSW 5 10 Partly Cloudy SCT030 SCT036 86 72     62%   92 30.07        
Jul 20 16:15 SW 3 10 Mostly Cloudy SCT029 BKN036 86 70     59%   91 30.06        
Jul 20 15:55 Calm 10 Partly Cloudy SCT029 SCT037 SCT044 86 70     59%   91 30.05        
Jul 20 15:35 SSW 5 10 Partly Cloudy SCT029 SCT036 SCT044 88 70     55%   93 30.05        
Jul 20 15:15 SSW 9 10 Partly Cloudy SCT028 86 70     59%   91 30.06        
Jul 20 14:55 SSW 6 10 Partly Cloudy SCT028 SCT033 88 70     55%   93 30.07        
Jul 20 14:35 SW 8 10 Partly Cloudy SCT027 SCT033 86 70     59%   91 30.07        
Jul 20 14:15 SW 7 10 Partly Cloudy SCT027 86 70     59%   91 30.08        
Jul 20 13:55 WSW 5 10 Partly Cloudy SCT020 84 70     62%   88 30.09        
Jul 20 13:35 Calm 10 Clear   82 70     66%   86 30.1        
Jul 20 13:15 WNW 6 10 Clear   82 72     70%   87 30.11        
Jul 20 12:55 W 6 10 Clear   81 72     74%   85 30.11        
Jul 20 12:35 WSW 6 10 Cloudy SCT014 BKN021 OVC033 81 70     70%   84 30.12        
Jul 20 12:15 W 5 10 Cloudy BKN012 OVC033 79 73     84%   82 30.12        
Jul 20 11:55 W 5 10 Cloudy OVC010 79 73     84%   82 30.12        
Jul 20 11:35 WSW 7 10 Cloudy OVC010 79 73     84%   82 30.13        
Jul 20 11:15 W 6 10 Cloudy OVC009 79 73     84%   82 30.12        
Jul 20 10:55 SW 3 10 Cloudy BKN007 OVC011 77 73     89%   79 30.12        
Jul 20 10:35 SW 8 10 Cloudy BKN009 OVC014 77 73     89%   79 30.12        
Jul 20 10:15 W 5 10 Cloudy OVC012 77 73     89%   79 30.13        
Jul 20 09:55 Calm 10 Cloudy SCT009 OVC014 77 73     89%   79 30.13        
Jul 20 09:35 Calm 10 Cloudy BKN005 OVC014 77 75     94%   79 30.12        
Jul 20 09:15 Calm 7 Cloudy OVC005 77 75     94%   79 30.12        
Jul 20 08:55 Calm 5 Fog/Mist OVC005 75 75     100%   77 30.13        
Jul 20 08:35 WNW 5 5 Fog/Mist OVC005 75 75     100%   77 30.13        
Jul 20 08:15 Calm 5 Fog/Mist OVC003 75 75     100%   77 30.13        
Jul 20 07:55 Calm 4 Fog/Mist OVC003 73 73     100%   75 30.13        
Jul 20 07:35 Calm 3 Fog/Mist OVC003 73 73     100%   75 30.12        
Jul 20 07:15 Calm 4 Fog/Mist OVC003 73 73     100%   75 30.12        
Jul 20 06:55 Calm 5 Fog/Mist OVC003 73 73     100%   75 30.11        
Jul 20 06:35 Calm 7 Cloudy BKN005 OVC014 73 73     100%   75 30.11        
Jul 20 06:15 Calm 7 Cloudy SCT005 BKN010 OVC014 73 73     100%   75 30.1        
Jul 20 05:55 WSW 3 10 Cloudy BKN009 OVC014 73 73     100%   75 30.09        
Jul 20 05:35 Calm 7 Cloudy SCT005 OVC010 73 73     100%   75 30.08        
Jul 20 05:15 SW 3 10 Cloudy OVC010 73 73     100%   75 30.08        
Jul 20 04:55 Calm 10 Cloudy OVC006 73 73     100%   75 30.08        
Jul 20 04:35 Calm 10 Cloudy OVC008 73 73     100%   75 30.07        
Jul 20 04:15 Calm 10 Cloudy OVC008 73 73     100%   75 30.07        
Jul 20 03:55 Calm 10 Cloudy OVC010 73 73     100%   75 30.06        
Jul 20 03:35 WNW 5 7 Mostly Cloudy BKN010 73 73     100%   75 30.06        
Jul 20 03:15 NW 3 4 Fog/Mist SCT003 OVC012 72 72     100%   73 30.06        
Jul 20 02:55 Calm 2 Fog/Mist SCT003 BKN014 OVC028 72 72     100%   73 30.07        
Jul 20 02:35 Calm 7 Mostly Cloudy SCT016 BKN028 73 73     100%   75 30.08        
Jul 20 02:15 Calm 7 Partly Cloudy SCT028 73 73     100%   75 30.08        
Jul 20 01:55 Calm 7 Partly Cloudy SCT007 SCT024 73 73     100%   75 30.09        
Jul 20 01:35 Calm 5 Fog/Mist BKN007 OVC024 73 73     100%   75 30.1        
Jul 20 01:15 Calm 10 Cloudy BKN007 OVC025 73 73     100%   75 30.11        
Jul 20 00:55 Calm 10 Mostly Cloudy SCT009 BKN025 BKN039 73 73     100%   75 30.11        
Jul 20 00:35 Calm 10 Mostly Cloudy SCT010 SCT015 BKN085 73 73     100%   75 30.12        
Jul 20 00:15 SW 3 10 Mostly Cloudy SCT008 BKN015 BKN085 75 73     94%   77 30.12        
Jul 19 23:55 S 3 10 Cloudy OVC008 75 73     94%   77 30.12        
Jul 19 23:35 Calm 10 Mostly Cloudy BKN008 BKN029 BKN046 73 73     100%   75 30.13        
Jul 19 23:15 Calm 10 Mostly Cloudy SCT010 SCT027 BKN034 73 73     100%   75 30.12        
Jul 19 22:55 Calm 10 Cloudy BKN030 OVC041 73 73     100%   75 30.13        
Jul 19 22:35 Calm 10 Partly Cloudy SCT032 73 73     100%   75 30.13        
Jul 19 22:15 Calm 10 Clear CLR 73 73     100%   75 30.12        
Jul 19 21:55 Calm 10 Clear CLR 77 72     83%   78 30.11        
Jul 19 21:35 SW 3 10 Clear CLR 77 72     83%   78 30.1        
Jul 19 21:15 SSW 3 10 Clear CLR 77 72     83%   78 30.09        
Jul 19 20:55 SW 3 10 Clear CLR 77 72     83%   78 30.09        
Jul 19 20:35 Calm 10 Clear CLR 77 73     89%   79 30.09        
Jul 19 20:15 Calm 10 Clear CLR 77 72     83%   78 30.08        
Jul 19 19:55 Calm 10 Clear CLR 77 72     83%   78 30.08        
Jul 19 19:35 Calm 10 Clear CLR 79 72     79%   82 30.09        
Jul 19 19:15 Calm 10 Partly Cloudy SCT120 79 70     74%   80 30.08        
Jul 19 18:55 W 3 10 Partly Cloudy SCT120 79 72     79%   82 30.09        
Jul 19 18:35 Calm 10 Partly Cloudy SCT120 79 72     79%   82 30.08        
Jul 19 18:15 Calm 10 Partly Cloudy SCT010 SCT120 79 72     79%   82 30.08        
Jul 19 17:55 Calm 10 Clear CLR 77 73     89%   79 30.08        
Jul 19 17:35 Calm 10 Partly Cloudy SCT043 SCT065 SCT120 75 72     89%   77 30.08        
Jul 19 17:15 NW 3 10 Light Rain SCT009 SCT031 BKN043 75 72     89%   77 30.1        
Jul 19 16:55 WNW 3 10 Partly Cloudy SCT007 77 72     83%   78 30.12        
Jul 19 16:35 WNW 7 10 Mostly Cloudy BKN009 BKN028 BKN036 75 73     94%   77 30.11        
Jul 19 16:15 WSW 6 7 Light Rain BKN009 BKN033 OVC044 73 72     94%   75 30.13        
Jul 19 15:55 W 8 7 Rain BKN013 BKN031 OVC100 77 72     83%   78 30.13        
Jul 19 15:35 W 13 10 Cloudy SCT015 BKN043 OVC085 79 70     74%   80 30.13        
Jul 19 15:15 W 13 10 Mostly Cloudy SCT047 SCT055 BKN075 79 70     74%   80 30.12        
Jul 19 14:55   10 Clear CLR 90 68     49%   93 30.11        
Jul 19 14:35 SW 8 10 Clear CLR 88 68     52%   91 30.1        
Jul 19 14:15 Calm 10 Clear CLR 88 68     52%   91 30.1        
Jul 19 13:55 Calm 10 Partly Cloudy SCT049 88 68     52%   91 30.11        
Jul 19 13:35 Calm 10 Partly Cloudy SCT035 SCT041 88 72     59%   94 30.11        
Jul 19 13:15 Calm 10 Partly Cloudy SCT022 SCT035 SCT041 86 72     62%   92 30.12        
Jul 19 12:55 Calm 10 Clear CLR 82 72     70%   87 30.13        
Jul 19 12:35 Calm 10 Clear CLR 82 73     74%   88 30.14        
Jul 19 12:15 Calm 10 Partly Cloudy SCT120 81 73     79%   85 30.15        
Jul 19 11:55 Calm 10 Partly Cloudy SCT120 81 73     79%   85 30.15        
Jul 19 11:35 Calm 10 Mostly Cloudy BKN120 81 73     79%   85 30.15        
Jul 19 11:15 Calm 10 Partly Cloudy SCT120 79 75     89%   82 30.16        
Jul 19 10:55 Calm 10 Mostly Cloudy BKN110 79 75     89%   82 30.16        
Jul 19 10:35 SSW 3 10 Partly Cloudy SCT110 77 75     94%   79 30.16        
Jul 19 10:15 SSW 3 10 Mostly Cloudy SCT050 BKN120 77 73     89%   79 30.16        
Jul 19 09:55 S 5 10 Cloudy SCT035 SCT050 OVC110 77 73     89%   79 30.16        
Jul 19 09:35 Calm 10 Cloudy OVC110 77 73     89%   79 30.15        
Jul 19 09:15 Calm 10 Cloudy OVC110 77 73     89%   79 30.15        
Jul 19 08:55 Calm 10 Mostly Cloudy BKN110 77 73     89%   79 30.14        
Jul 19 08:35 Calm 10 Clear CLR 75 73     94%   77 30.13        
Jul 19 08:15 Calm 7 Clear CLR 73 73     100%   75 30.13        
Jul 19 07:55 Calm 5 Fog/Mist SCT003 72 72     100%   73 30.12        
Jul 19 07:35 Calm 10 Clear CLR 73 73     100%   75 30.11        
Jul 19 07:15 Calm 10 Clear CLR 73 73     100%   75 30.1        
Jul 19 06:55 Calm 10 Clear CLR 73 73     100%   75 30.1        
Jul 19 06:35 Calm 2 Fog/Mist CLR 72 72     100%   73 30.09        
Jul 19 06:15 Calm 7 Partly Cloudy SCT037 SCT050 SCT055 72 72     100%   73 30.09        
Jul 19 05:55 Calm 10 Cloudy BKN035 OVC048 72 72     100%   73 30.08        
Jul 19 05:35 Calm 10 Mostly Cloudy BKN035 BKN040 72 72     100%   73 30.08        
Jul 19 05:10 Calm 7 Mostly Cloudy BKN035 BKN042 72 72     100%   73 30.08        
Jul 19 04:55 Calm 10 Partly Cloudy SCT035 72 72     100%   73 30.07        
Jul 19 04:35 Calm 10 Partly Cloudy SCT001 72 72     100%   73 30.07        
Jul 19 04:15 Calm 0.5 Fog OVC001 72 72     100%   73 30.07        
Jul 19 03:55 Calm 0.5 Fog OVC001 72 72     100%   73 30.07        
Jul 19 03:35 Calm 0.5 Fog OVC001 72 72     100%   73 30.07        
Jul 19 03:15 Calm 2.5 Fog/Mist SCT001 72 72     100%   73 30.07        
Jul 19 02:55 Calm 3 Fog/Mist BKN001 73 73     100%   75 30.08        
Jul 19 02:35 Calm 0.75 Fog/Mist OVC003 72 72     100%   73 30.08        
Jul 19 02:15 Calm 2 Fog/Mist BKN003 72 72     100%   73 30.09        
Jul 19 01:55 Calm 7 Partly Cloudy SCT003 73 73     100%   75 30.09        
Jul 19 01:35 Calm 7 Clear CLR 73 73     100%   75 30.09        
Jul 19 01:15 Calm 10 Clear CLR 73 73     100%   75 30.09        
Jul 19 00:55 Calm 10 Clear CLR 73 73     100%   75 30.1        
Jul 19 00:35 Calm 10 Partly Cloudy SCT034 SCT040 SCT050 73 73     100%   75 30.11        
Jul 19 00:15 Calm 10 Partly Cloudy SCT031 SCT040 SCT050 73 73     100%   75 30.11        
Jul 18 23:50 Calm 7 Partly Cloudy SCT033 SCT042 73 73     100%   75 30.11        
Jul 18 23:35 Calm 10 Mostly Cloudy SCT033 BKN042 73 73     100%   75 30.11        
Jul 18 23:10 Calm 10 Clear CLR 73 73     100%   75 30.11        
Jul 18 22:55 Calm 10 Clear CLR 75 73     94%   77 30.1        
Jul 18 22:35 Calm 10 Clear CLR 73 73     100%   75 30.1        
Jul 18 22:15 Calm 10 Clear CLR 73 72     94%   75 30.11        
Jul 18 21:55 Calm 10 Clear CLR 77 72     83%   78 30.09        
Jul 18 21:35 Calm 10 Clear CLR 75 72     89%   77 30.09        
Jul 18 21:20 Calm 10 Clear CLR 77 72     83%   78 30.09        
Jul 18 20:55 Calm 10 Clear CLR 75 72     89%   77 30.08        
Jul 18 20:15 Calm 10 Clear CLR 77 70     78%   78 30.07        
Jul 18 19:55 Calm 10 Clear CLR 77 70     78%   78 30.07        
Jul 18 19:35 Calm 10 Clear CLR 77 72     83%   78 30.06        
Jul 18 19:15 Calm 10 Light Drizzle SCT050 SCT100 SCT120 75 72     89%   77 30.07        
Jul 18 18:55 Calm 10 Light Drizzle SCT100 SCT120 75 73     94%   77 30.07        
Jul 18 18:35 Calm 10 Light Drizzle SCT035 SCT070 BKN120 77 73     89%   79 30.08        
Jul 18 18:15 NNE 5 10 Light Drizzle SCT029 BKN042 OVC120 77 73     89%   79 30.08        
Jul 18 17:55 Calm 10 Light Rain SCT028 SCT041 BKN100 79 73     84%   82 30.09        
Jul 18 17:35 W 5 10 Light Rain SCT055 79 72     79%   82 30.08        
Jul 18 17:15 W 5 10 Partly Cloudy SCT016 SCT110 82 70     66%   86 30.08        
Jul 18 16:55 WSW 8 10 Partly Cloudy SCT110 82 70     66%   86 30.08        
Jul 18 16:35 WSW 10 10 Clear   82 70     66%   86 30.08        
Jul 18 16:15 W 7 10 Partly Cloudy SCT060 86 70     59%   91 30.08        
Jul 18 15:55 WNW 5 10 Mostly Cloudy SCT041 SCT047 BKN070 88 70     55%   93 30.08        
Jul 18 15:35 NW 5 10 Partly Cloudy SCT043 SCT050 SCT080 88 70     55%   93 30.07        
Jul 18 15:15 NW 6 10 Mostly Cloudy SCT041 BKN048 BKN080 88 68     52%   91 30.08        
Jul 18 14:50 WNW 5 10 Partly Cloudy SCT037 88 68     52%   91 30.08        
Jul 18 14:35 W 9 10 Mostly Cloudy BKN037 88 70     55%   93 30.09        
Jul 18 14:15 WNW 6 10 Partly Cloudy SCT035 88 70     55%   93 30.1        
Jul 18 13:55 WNW 9 10 Partly Cloudy SCT035 88 70     55%   93 30.11        
Jul 18 13:35 WNW 9 10 Partly Cloudy SCT035 86 70     59%   91 30.11        
Jul 18 13:15 NW 8 10 Clear CLR 86 70     59%   91 30.11        
Jul 18 12:55 W 6 10 Clear CLR 86 70     59%   91 30.12        
Jul 18 12:35 WNW 8 10 Clear   84 70     62%   88 30.13        
Jul 18 12:15 WNW 10 10 Clear   82 70     66%   86 30.13        
Jul 18 11:55 WNW 7 10 Clear   82 70     66%   86 30.13        
Jul 18 11:35 W 6 10 Clear   82 70     66%   86 30.13        
Jul 18 11:15 WNW 8 10 Clear CLR 82 72     70%   87 30.13        
Jul 18 10:55 WNW 6 10 Clear CLR 82 70     66%   86 30.12        
Jul 18 10:35 W 5 10 Clear CLR 81 72     74%   85 30.13        
Jul 18 10:15 Calm 10 Clear CLR 81 73     79%   85 30.12        
Jul 18 09:55 WNW 3 10 Clear CLR 79 73     84%   82 30.12        
Jul 18 09:35 Calm 10 Partly Cloudy SCT005 77 77     100%   79 30.13        
Jul 18 09:15 Calm 10 Partly Cloudy SCT005 75 75     100%   77 30.12        
Jul 18 08:55 Calm 10 Partly Cloudy SCT001 73 73     100%   75 30.12        
Jul 18 08:35 Calm 0.25 Fog OVC001 73 73     100%   75 30.11        
Jul 18 08:15 Calm 7 Partly Cloudy SCT001 73 73     100%   75 30.11        
Jul 18 07:55 Calm 0.5 Fog OVC001 72 72     100%   73 30.1        
Jul 18 07:35 Calm 2.5 Fog/Mist SCT001 72 72     100%   73 30.1        
Jul 18 07:15 Calm 0.75 Fog/Mist OVC001 72 72     100%   73 30.09        
Jul 18 06:55 Calm 0.5 Fog BKN001 OVC014 72 72     100%   73 30.09        
Jul 18 06:35 Calm 7 Partly Cloudy SCT014 72 72     100%   73 30.08        
Jul 18 06:15 Calm 0.5 Fog BKN003 OVC016 72 72     100%   73 30.08        
Jul 18 05:55 Calm 1 Fog/Mist BKN003 72 72     100%   73 30.08        
Jul 18 05:35 Calm 7 Clear CLR 72 72     100%   73 30.08        
Jul 18 05:15 Calm 3 Fog/Mist SCT040 SCT050 72 72     100%   73 30.08        
Jul 18 04:55 Calm 7 Mostly Cloudy SCT021 BKN040 BKN049 72 72     100%   73 30.08        
Jul 18 04:35 Calm 10 Partly Cloudy SCT040 73 73     100%   75 30.08        
Jul 18 04:15 Calm 7 Partly Cloudy SCT001 SCT010 72 72     100%   73 30.08        
Jul 18 03:55 Calm 0.5 Fog OVC001 72 72     100%   73 30.08        
Jul 18 03:35 Calm 1.5 Fog/Mist BKN003 72 72     100%   73 30.08        
Jul 18 03:15 Calm 1 Fog/Mist OVC001 72 72     100%   73 30.09        
Jul 18 02:55 Calm 5 Fog/Mist SCT001 BKN070 73 73     100%   75 30.1        
Jul 18 02:35 Calm 0.25 Fog OVC001 72 72     100%   73 30.11        
Jul 18 02:15 Calm 0.5 Fog BKN001 OVC011 73 73     100%   75 30.11        
Jul 18 01:55 Calm 1 Fog/Mist BKN002 BKN015 OVC047 73 73     100%   75 30.11        
Jul 18 01:35 Calm 7 Partly Cloudy SCT046 SCT065 73 73     100%   75 30.13        
Jul 18 01:15 Calm 7 Mostly Cloudy SCT044 BKN050 73 73     100%   75 30.13        
Jul 18 00:55 WSW 6 10 Cloudy BKN044 OVC050 73 73     100%   75 30.12        
Jul 18 00:35 Calm 0.5 Fog BKN002 BKN040 OVC090 73 73     100%   75 30.13        
Jul 18 00:15 Calm 7 Partly Cloudy SCT039 73 73     100%   75 30.14        
Jul 17 23:55 Calm 1.75 Fog/Mist SCT003 BKN039 OVC060 73 73     100%   75 30.14        
Jul 17 23:35 Calm 10 Mostly Cloudy SCT041 SCT048 BKN060 75 75     100%   77 30.14        
Jul 17 23:15 Calm 10 Mostly Cloudy SCT035 SCT041 BKN070 75 75     100%   77 30.13        
Jul 17 22:55 Calm 10 Mostly Cloudy BKN035 BKN041 77 73     89%   79 30.13        
Jul 17 22:35 SW 3 7 Light Rain SCT023 OVC033 77 73     89%   79 30.13        
Jul 17 22:15 Calm 10 Cloudy SCT024 BKN031 OVC080 77 73     89%   79 30.13        
Jul 17 21:55 SW 3 10 Cloudy SCT034 SCT043 OVC070 77 73     89%   79 30.12        
Jul 17 21:35 Calm 10 Partly Cloudy SCT060 SCT070 77 72     83%   78 30.11        
Jul 17 21:15 SW 3 10 Clear CLR 77 73     89%   79 30.1        
Jul 17 20:55 Calm 10 Clear CLR 79 72     79%   82 30.09        
Jul 17 20:35 WSW 3 10 Partly Cloudy SCT070 79 72     79%   82 30.09        
Jul 17 20:15 Calm 10 Partly Cloudy SCT100 79 72     79%   82 30.09        
Jul 17 19:55 W 3 10 Partly Cloudy SCT100 79 72     79%   82 30.09        
Jul 17 19:35 W 3 10 Light Rain SCT047 SCT070 SCT085 79 73     84%   82 30.09        
Jul 17 19:15 Calm 10 Clear CLR 77 73     89%   79 30.09        
Jul 17 18:55 SSW 5 10 Clear CLR 79 73     84%   82 30.09        
Jul 17 18:35 SSW 9 10 Clear CLR 79 73     84%   82 30.1        
Jul 17 18:15 SSW 6 10 Clear CLR 79 75     89%   82 30.1        
Jul 17 17:55 Calm 10 Clear CLR 79 73     84%   82 30.1        
Jul 17 17:35 Calm 10 Clear CLR 79 73     84%   82 30.11        
Jul 17 17:15 W 5 10 Mostly Cloudy SCT044 SCT050 BKN070 77 73     89%   79 30.12        
Jul 17 16:55 SW 8 10 Light Rain SCT040 BKN050 77 73     89%   79 30.13        
Jul 17 16:35 SW 5 10 Partly Cloudy SCT040 SCT070 SCT100 77 73     89%   79 30.13        
Jul 17 16:15 SW 6 10 Light Rain SCT042 SCT070 BKN080 77 73     89%   79 30.14        
Jul 17 15:55 W 5 10 Light Rain SCT034 BKN046 OVC085 73 72     94%   75 30.14        
Jul 17 15:35 W 9 5 Heavy Rain SCT041 SCT050 BKN065 75 70     83%   76 30.15        
Jul 17 15:15 Calm 10 Partly Cloudy SCT016 SCT065 79 75     89%   82 30.13        
Jul 17 14:55 NE 3 10 Mostly Cloudy BKN014 BKN040 BKN048 79 77     94%   83 30.14        
Jul 17 14:35 Calm 7 Light Rain BKN040 BKN046 OVC055 79 73     84%   82 30.15        
Jul 17 14:15 Calm 10 Cloudy BKN040 OVC048 79 75     89%   82 30.15        
Jul 17 13:55 WSW 5 10 Light Rain SCT034 BKN045 BKN060 77 73     89%   79 30.15        
Jul 17 13:35 WSW 3 10 Light Rain SCT032 SCT040 BKN047 75 72     89%   77 30.15        
Jul 17 13:15 W 3 7 Rain SCT031 BKN040 OVC110 79 73     84%   82 30.16        
Jul 17 12:55 W 9 3 Heavy Rain SCT037 BKN043 BKN110 82 72     70%   87 30.16        
Jul 17 12:35 S 9 10 Partly Cloudy SCT110 86 72     62%   92 30.15        
Jul 17 12:15 SW 7 10 Partly Cloudy SCT027 SCT032 SCT038 84 70     62%   88 30.16        
Jul 17 11:55 SW 6 10 Light Rain SCT029 BKN039 BKN049 86 70     59%   91 30.16        
Jul 17 11:35 WNW 7 10 Cloudy SCT029 BKN035 OVC080 82 72     70%   87 30.17        
Jul 17 11:15 W 9 10 Mostly Cloudy SCT029 SCT036 BKN080 82 70     66%   86 30.17        
Jul 17 10:55 W 9 10 Partly Cloudy SCT024 SCT029 SCT080 82 72     70%   87 30.17        
Jul 17 10:35 W 6 10 Partly Cloudy SCT022 SCT029 84 72     66%   90 30.17        
Jul 17 10:15 WSW 7 10 Clear CLR 82 72     70%   87 30.17        
Jul 17 09:55 SW 8 10 Clear CLR 82 72     70%   87 30.17        
Jul 17 09:35 WSW 7 10 Clear CLR 81 72     74%   85 30.17        
Jul 17 09:15 Calm 10 Clear CLR 79 72     79%   82 30.16        
Jul 17 08:55 Calm 10 Clear CLR 75 72     89%   77 30.16        
Jul 17 08:35 Calm 10 Clear CLR 73 72     94%   75 30.15        
Jul 17 08:15 Calm 10 Clear CLR 72 72     100%   73 30.15        
Jul 17 07:55 Calm 10 Clear CLR 72 72     100%   73 30.14        
Jul 17 07:35 Calm 7 Clear CLR 70 70     100%     30.14        
Jul 17 07:15 Calm 7 Clear CLR 70 70     100%     30.14        
Jul 17 06:55 Calm 7 Clear CLR 70 70     100%     30.14        
Jul 17 06:35 Calm 10 Clear CLR 72 72     100%   73 30.14        
Jul 17 06:15 Calm 7 Clear CLR 70 70     100%     30.14        
Jul 17 05:55 Calm 7 Clear CLR 70 70     100%     30.13        
Jul 17 05:35 Calm 7 Clear CLR 70 70     100%     30.14        
Jul 17 05:15 Calm 7 Clear CLR 70 70     100%     30.14        
Jul 17 04:55 Calm 7 Clear CLR 70 70     100%     30.13        
Jul 17 04:35 Calm 10 Clear CLR 72 72     100%   73 30.13        
Jul 17 04:15 Calm 10 Clear CLR 72 72     100%   73 30.13        
Jul 17 03:55 Calm 10 Clear CLR 73 72     94%   75 30.13        
Jul 17 03:35 Calm 10 Clear CLR 72 72     100%   73 30.13        
Jul 17 03:15 Calm 10 Clear CLR 72 72     100%   73 30.14        
Jul 17 02:55 Calm 10 Clear CLR 72 72     100%   73 30.14        
Jul 17 02:35 Calm 10 Clear   72 72     100%   73 30.14        
Jul 17 02:15 Calm 10 Clear   72 72     100%   73 30.13        
Jul 17 01:55 Calm 10 Clear   72 72     100%   73 30.13        
Jul 17 01:35 Calm 10 Clear CLR 72 72     100%   73 30.14        
Jul 17 01:15 Calm 10 Clear CLR 72 70     94%   73 30.14        
Jul 17 00:55 Calm 10 Clear CLR 75 72     89%   77 30.14        
Jul 17 00:35 Calm 10 Clear CLR 72 72     100%   73 30.15        
Jul 17 00:15 Calm 10 Clear CLR 73 70     89%   75 30.15        
Jul 16 23:55 Calm 10 Clear CLR 79 70     74%   80 30.15        
Jul 16 23:35 Calm 10 Clear CLR 77 70     78%   78 30.16        
Jul 16 23:15 Calm 10 Clear CLR 77 70     78%   78 30.16        
Jul 16 22:55 Calm 10 Clear CLR 81 68     66%   83 30.15        
Jul 16 22:35 Calm 10 Clear CLR 82 64     55%   84 30.15        
Jul 16 22:15 Calm 10 Clear CLR 81 66     62%   83 30.14        
Jul 16 21:55 Calm 10 Clear CLR 82 64     55%   84 30.14        
Jul 16 21:35 SW 3 10 Clear CLR 84 64     52%   86 30.14        
Jul 16 21:15 WSW 3 10 Clear CLR 84 64     52%   86 30.13        
Jul 16 18:55 SW 6 10 Clear CLR 90 63     41%   90 30.11        
Jul 16 18:35 W 6 10 Clear CLR 91 63     38%   92 30.11        
Jul 16 18:15 SW 8 10 Clear CLR 91 61     36%   91 30.12        
Jul 16 17:55 WSW 3 10 Clear CLR 91 61     36%   91 30.12        
Jul 16 17:35 WSW 6 10 Clear CLR 91 59     34%   91 30.13        
Jul 16 17:15 SW 7 10 Clear CLR 91 59     34%   91 30.13        
Jul 16 16:55 SW 9 10 Partly Cloudy SCT065 91 59     34%   91 30.14        
Jul 16 16:35 SW 8 10 Partly Cloudy SCT065 91 59     34%   91 30.14        
Jul 16 16:15 WSW 8 10 Clear CLR 91 61     36%   91 30.15        
Jul 16 15:55 SW 9 10 Clear   91 59     34%   91 30.15        
Jul 16 15:35 WSW 7 10 Clear CLR 91 61     36%   91 30.16        
Jul 16 15:15 WSW 9 10 Partly Cloudy SCT055 90 61     38%   90 30.17        
Jul 16 14:55 S 3 10 Partly Cloudy SCT049 SCT055 90 63     41%   90 30.17        
Jul 16 14:35 WSW 6 10 Partly Cloudy SCT047 SCT055 90 64     43%   91 30.18        
Jul 16 14:15 W 3 10 Partly Cloudy SCT047 90 63     41%   90 30.18        
Jul 16 13:55 S 5 10 Partly Cloudy SCT047 90 64     43%   91 30.18        
Jul 16 13:35 W 7 10 Partly Cloudy SCT043 90 64     43%   91 30.19        
Jul 16 13:15 SW 7 10 Partly Cloudy SCT043 SCT048 88 64     46%   89 30.19        
Jul 16 12:55 SSW 7 10 Partly Cloudy SCT041 88 64     46%   89 30.2        
Jul 16 12:35 SSW 6 10 Clear CLR 88 64     46%   89 30.2        
Jul 16 12:15 W 8 10 Clear CLR 86 64     49%   88 30.21        
Jul 16 11:55 SSW 8 10 Clear CLR 88 64     46%   89 30.21        
Jul 16 11:35 SSW 10 10 Partly Cloudy SCT029 SCT034 86 64     49%   88 30.21        
Jul 16 11:15 SSW 8 10 Partly Cloudy SCT029 SCT033 86 68     55%   89 30.21        
Jul 16 10:55 SW 6 10 Clear CLR 84 70     62%   88 30.21        
Jul 16 10:35 SSW 3 10 Clear CLR 82 70     66%   86 30.21        
Jul 16 10:15 Calm 10 Clear CLR 81 72     74%   85 30.2        
Jul 16 09:55 Calm 10 Clear CLR 81 70     70%   84 30.21        
Jul 16 09:35 Calm 10 Clear CLR 79 70     74%   80 30.21        
Jul 16 09:15 Calm 10 Clear CLR 77 70     78%   78 30.21        
Jul 16 08:55 Calm 10 Clear CLR 75 73     94%   77 30.2        
Jul 16 08:35 Calm 10 Clear CLR 73 72     94%   75 30.21        
Jul 16 08:15 Calm 10 Clear CLR 72 72     100%   73 30.2        
Jul 16 07:55 Calm 7 Clear CLR 70 70     100%     30.2        
Jul 16 07:35 Calm 7 Clear CLR 70 70     100%     30.19        
Jul 16 07:15 Calm 10 Clear CLR 70 70     100%     30.18        
Jul 16 06:55 Calm 5 Fog/Mist CLR 70 70     100%     30.18        
Jul 16 06:35 Calm 7 Clear CLR 70 70     100%     30.18        
Jul 16 06:15 Calm 7 Clear CLR 70 70     100%     30.17        
Jul 16 05:55 Calm 7 Clear CLR 70 70     100%     30.17        
Jul 16 05:35 Calm 3 Fog/Mist SCT003 SCT120 70 70     100%     30.16        
Jul 16 05:15 Calm 7 Clear CLR 70 70     100%     30.16        
Jul 16 04:55 Calm 7 Clear CLR 70 70     100%     30.15        
Jul 16 04:35 Calm 10 Clear CLR 70 70     100%     30.15        
Jul 16 04:15 Calm 7 Clear CLR 70 70     100%     30.15        
Jul 16 03:55 Calm 10 Clear CLR 72 72     100%   73 30.15        
Jul 16 03:35 Calm 7 Clear CLR 72 72     100%   73 30.15        
Jul 16 03:15 Calm 7 Clear CLR 72 72     100%   73 30.15        
Jul 16 02:55 Calm 7 Clear CLR 72 72     100%   73 30.15        
Jul 16 02:35 Calm 7 Clear CLR 72 72     100%   73 30.16        
Jul 16 02:15 Calm 7 Clear CLR 72 72     100%   73 30.16        
Jul 16 01:55 Calm 7 Clear CLR 72 72     100%   73 30.16        
Jul 16 01:35 Calm 10 Clear   73 73     100%   75 30.16        
Jul 16 01:15 Calm 10 Clear   72 72     100%   73 30.17        
Jul 16 00:55 Calm 10 Clear   73 73     100%   75 30.17        
Jul 16 00:35 Calm 10 Clear CLR 73 73     100%   75 30.17        
Jul 16 00:15 Calm 10 Clear CLR 75 73     94%   77 30.17        
Jul 15 23:55 Calm 10 Clear CLR 75 73     94%   77 30.17        
Jul 15 23:35 Calm 10 Clear CLR 75 73     94%   77 30.17        
Jul 15 23:15 Calm 10 Clear CLR 77 72     83%   78 30.17        
Jul 15 22:55 Calm 10 Clear CLR 79 72     79%   82 30.16        
Jul 15 22:35 Calm 10 Clear CLR 77 73     89%   79 30.17        
Jul 15 22:15 Calm 10 Clear CLR 77 73     89%   79 30.16        
Jul 15 21:55 Calm 10 Clear CLR 79 70     74%   80 30.16        
Jul 15 21:35 Calm 10 Partly Cloudy SCT070 SCT085 82 64     55%   84 30.15        
Jul 15 21:15 Calm 10 Mostly Cloudy BKN070 BKN085 81 70     70%   84 30.15        
Jul 15 20:55 Calm 10 Partly Cloudy SCT070 SCT085 81 72     74%   85 30.15        
Jul 15 20:35 Calm 10 Partly Cloudy SCT085 82 70     66%   86 30.15        
Jul 15 20:15 Calm 10 Clear CLR 82 70     66%   86 30.14        
Jul 15 19:55 Calm 10 Clear CLR 84 70     62%   88 30.14        
Jul 15 19:35 Calm 10 Clear CLR 86 68     55%   89 30.14        
Jul 15 19:15 Calm 10 Clear CLR 88 64     46%   89 30.14        
Jul 15 18:55 Calm 10 Clear CLR 90 63     41%   90 30.13        
Jul 15 18:35 Calm 10 Clear CLR 90 63     41%   90 30.13        
Jul 15 18:15 W 3 10 Clear CLR 90 63     41%   90 30.13        
Jul 15 17:55 SW 6 10 Clear CLR 90 61     38%   90 30.14        
Jul 15 17:35 W 5 10 Clear CLR 90 61     38%   90 30.14        
Jul 15 17:15 Calm 10 Clear CLR 90 63     41%   90 30.15        
Jul 15 16:55 WSW 6 10 Clear CLR 90 61     38%   90 30.15        
Jul 15 16:35 SW 9 10 Clear CLR 90 61     38%   90 30.16        
Jul 15 16:15 Calm 10 Clear CLR 90 63     41%   90 30.16        
Jul 15 15:55 SSW 9 10 Clear CLR 90 61     38%   90 30.17        
Jul 15 15:35 WSW 7 10 Clear CLR 88 61     40%   88 30.18        
Jul 15 15:15 SW 7 10 Clear CLR 88 61     40%   88 30.18        
Jul 15 14:55 WSW 7 10 Clear CLR 88 59     38%   87 30.19        
Jul 15 14:35 WSW 7 10 Clear CLR 88 57     36%   87 30.19        
Jul 15 14:15 WSW 8 10 Clear CLR 88 59     38%   87 30.19        
Jul 15 13:55 WSW 6 10 Clear CLR 90 61     38%   90 30.19        
Jul 15 13:35 WSW 7 10 Clear CLR 90 61     38%   90 30.2        
Jul 15 13:15 W 3 10 Clear CLR 88 61     40%   88 30.2        
Jul 15 12:55 SW 7 10 Clear CLR 88 61     40%   88 30.21        
Jul 15 12:35 WSW 3 10 Clear CLR 86 61     43%   86 30.2        
Jul 15 12:15 SW 5 10 Clear CLR 88 63     43%   88 30.21        
Jul 15 11:55 Calm 10 Clear CLR 88 66     49%   90 30.21        
Jul 15 11:35 Calm 10 Clear CLR 86 66     52%   88 30.21        
Jul 15 11:15 Calm 10 Clear CLR 84 68     58%   87 30.21        
Jul 15 10:55 Calm 10 Clear CLR 86 64     49%   88 30.21        
Jul 15 10:35 Calm 10 Clear CLR 84 64     52%   86 30.2        
Jul 15 10:15 Calm 10 Clear CLR 84 64     52%   86 30.2        
Jul 15 09:55 Calm 10 Clear CLR 82 66     58%   85 30.19        
Jul 15 09:35 Calm 10 Clear CLR 81 66     62%   83 30.19        
Jul 15 09:15 Calm 10 Clear CLR 79 68     70%   80 30.18        
Jul 15 08:55 Calm 10 Clear CLR 75 70     83%   76 30.18        
Jul 15 08:35 Calm 10 Clear CLR 73 72     94%   75 30.18        
Jul 15 08:15 Calm 10 Clear CLR 72 70     94%   73 30.18        
Jul 15 07:55 Calm 10 Clear CLR 70 70     100%     30.18        
Jul 15 07:35 Calm 10 Clear CLR 70 70     100%     30.17        
Jul 15 07:15 Calm 10 Clear CLR 70 68     94%     30.17        
Jul 15 06:55 Calm 10 Clear CLR 70 70     100%     30.17        
Jul 15 06:35 Calm 10 Clear CLR 68 68     100%     30.17        
Jul 15 06:15 Calm 10 Clear CLR 70 68     94%     30.17        
Jul 15 05:55 Calm 10 Clear CLR 70 70     100%     30.17        
Jul 15 05:35 Calm 10 Clear CLR 68 68     100%     30.17        
Jul 15 05:15 Calm 10 Clear CLR 68 68     100%     30.16        
Jul 15 04:55 Calm 10 Clear CLR 70 68     94%     30.16        
Jul 15 04:35 Calm 10 Clear CLR 70 70     100%     30.16        
Jul 15 04:15 Calm 7 Clear CLR 70 70     100%     30.16        
Jul 15 03:55 Calm 10 Clear CLR 72 70     94%   73 30.16        
Jul 15 03:35 Calm 10 Clear CLR 70 70     100%     30.16        
Jul 15 03:15 Calm 10 Clear CLR 72 70     94%   73 30.16        
Jul 15 02:55 Calm 10 Clear CLR 73 68     83%   74 30.17        
Jul 15 02:35 Calm 10 Clear CLR 73 68     83%   74 30.17        
Jul 15 02:15 Calm 10 Clear CLR 73 68     83%   74 30.17        
Jul 15 01:55 SW 3 10 Clear CLR 73 68     83%   74 30.18        
Jul 15 01:35 Calm 10 Clear CLR 73 68     83%   74 30.18        
Jul 15 01:15 Calm 10 Clear CLR 73 68     83%   74 30.18        
Jul 15 00:55 Calm 10 Clear CLR 72 70     94%   73 30.18        
Jul 15 00:35 Calm 10 Clear CLR 72 70     94%   73 30.19        
Jul 15 00:15 Calm 10 Clear CLR 72 70     94%   73 30.19        
Jul 14 23:55 Calm 10 Clear CLR 72 72     100%   73 30.2        
Jul 14 23:35 Calm 10 Clear CLR 72 72     100%   73 30.2        
Jul 14 23:15 Calm 10 Clear CLR 72 72     100%   73 30.2        
Jul 14 22:55 Calm 10 Clear CLR 72 70     94%   73 30.21        
Jul 14 22:35 Calm 10 Clear CLR 73 70     89%   75 30.21        
Jul 14 22:15 Calm 10 Clear CLR 75 68     78%   76 30.21        
Jul 14 21:55 Calm 10 Clear CLR 73 70     89%   75 30.2        
Jul 14 21:35 Calm 10 Clear CLR 77 68     74%   78 30.2        
Jul 14 21:15 Calm 10 Clear CLR 77 68     74%   78 30.19        
Jul 14 20:55 Calm 10 Clear CLR 77 66     69%   78 30.19        
Jul 14 20:35 Calm 10 Clear CLR 79 68     70%   80 30.19        
Jul 14 20:15 Calm 10 Clear CLR 79 68     70%   80 30.18        
Jul 14 19:55 Calm 10 Clear CLR 79 70     74%   80 30.18        
Jul 14 19:35 Calm 10 Clear CLR 81 70     70%   84 30.18        
Jul 14 19:15 Calm 10 Clear CLR 81 70     70%   84 30.18        
Jul 14 18:55 Calm 10 Clear CLR 81 68     66%   83 30.19        
Jul 14 18:35 Calm 10 Clear CLR 81 68     66%   83 30.19        
Jul 14 18:15 Calm 10 Clear CLR 82 68     62%   85 30.18        
Jul 14 17:55 Calm 10 Clear CLR 82 68     62%   85 30.19        
Jul 14 17:35 Calm 10 Clear CLR 82 66     58%   85 30.19        
Jul 14 17:15 Calm 10 Clear CLR 84 68     58%   87 30.2        
Jul 14 16:55 Calm 10 Clear CLR 82 70     66%   86 30.2        
Jul 14 16:35 WNW 3 10 Clear CLR 82 68     62%   85 30.2        
Jul 14 16:15 WNW 6 10 Clear CLR 82 68     62%   85 30.2        
Jul 14 15:55 NW 3 10 Clear CLR 82 68     62%   85 30.2        
Jul 14 15:35 NW 5 10 Clear CLR 82 66     58%   85 30.21        
Jul 14 15:15 NW 5 10 Clear CLR 82 68     62%   85 30.21        
Jul 14 14:55 NW 3 10 Clear CLR 82 70     66%   86 30.22        
Jul 14 14:35 NW 6 10 Clear CLR 82 68     62%   85 30.22        
Jul 14 14:15 WNW 5 10 Clear CLR 82 68     62%   85 30.22        
Jul 14 13:55 WNW 6 10 Clear CLR 82 68     62%   85 30.23        
Jul 14 13:35 WNW 8 10 Clear CLR 82 68     62%   85 30.24        
Jul 14 13:15 WNW 7 10 Clear CLR 82 68     62%   85 30.25        
Jul 14 12:55 WNW 5 10 Clear CLR 82 68     62%   85 30.25        
Jul 14 12:35 WNW 7 10 Clear CLR 82 70     66%   86 30.25        
Jul 14 12:15 NW 6 10 Partly Cloudy SCT090 81 70     70%   84 30.25        
Jul 14 11:55 WNW 3 10 Partly Cloudy SCT090 81 68     66%   83 30.26        
Jul 14 11:35 NW 5 10 Partly Cloudy SCT110 81 70     70%   84 30.25        
Jul 14 11:15 Calm 10 Mostly Cloudy BKN110 81 72     74%   85 30.25        
Jul 14 10:55 Calm 10 Cloudy OVC110 81 70     70%   84 30.25        
Jul 14 10:35 Calm 10 Mostly Cloudy BKN110 79 72     79%   82 30.25        
Jul 14 10:15 Calm 10 Partly Cloudy SCT100 79 72     79%   82 30.24        
Jul 14 09:55 Calm 10 Partly Cloudy SCT100 77 72     83%   78 30.23        
Jul 14 09:35 Calm 10 Partly Cloudy SCT100 77 73     89%   79 30.24        
Jul 14 09:15 Calm 10 Clear CLR 75 73     94%   77 30.23        
Jul 14 08:55 Calm 10 Clear CLR 73 73     100%   75 30.22        
Jul 14 08:35 Calm 10 Clear CLR 73 73     100%   75 30.21        
Jul 14 08:15 Calm 10 Clear CLR 72 72     100%   73 30.21        
Jul 14 07:55 Calm 10 Clear CLR 73 72     94%   75 30.21        
Jul 14 07:35 Calm 10 Partly Cloudy SCT120 72 72     100%   73 30.2        
Jul 14 07:15 Calm 10 Clear CLR 72 72     100%   73 30.2        
Jul 14 06:55 Calm 10 Clear CLR 72 72     100%   73 30.19        
Jul 14 06:35 Calm 10 Clear CLR 72 72     100%   73 30.19        
Jul 14 06:15 WSW 3 10 Clear CLR 72 72     100%   73 30.18        
Jul 14 05:55 Calm 10 Clear CLR 72 72     100%   73 30.18        
Jul 14 05:35 Calm 10 Clear CLR 72 72     100%   73 30.16        
Jul 14 05:15 Calm 10 Clear CLR 72 72     100%   73 30.16        
Jul 14 04:55 Calm 10 Clear CLR 72 72     100%   73 30.16        
Jul 14 04:35 Calm 7 Clear CLR 72 72     100%   73 30.15        
Jul 14 04:15 Calm 10 Clear CLR 72 72     100%   73 30.15        
Jul 14 03:55 Calm 10 Clear CLR 72 72     100%   73 30.15        
Jul 14 03:35 Calm 10 Partly Cloudy SCT002 SCT005 72 72     100%   73 30.15        
Jul 14 03:15 SW 7 7 Partly Cloudy SCT002 SCT005 72 72     100%   73 30.16        
Jul 14 02:55 Calm 0.5 Fog OVC002 70 70     100%     30.16        
Jul 14 02:35 Calm 0.5 Fog OVC002 70 70     100%     30.18        
Jul 14 02:15 Calm 0.75 Fog/Mist OVC002 72 72     100%   73 30.19        
Jul 14 01:55 Calm 3 Fog/Mist SCT002 SCT120 72 72     100%   73 30.2        
Jul 14 01:35 Calm 10 Partly Cloudy SCT110 72 72     100%   73 30.21        
Jul 14 01:15 Calm 10 Mostly Cloudy BKN110 72 72     100%   73 30.21        
Jul 14 00:55 Calm 10 Partly Cloudy SCT002 SCT110 72 72     100%   73 30.21        
Jul 14 00:35 Calm 1 Fog/Mist BKN002 BKN009 72 72     100%   73 30.21        
Jul 14 00:15 Calm 1.5 Fog/Mist VV007 72 72     100%   73 30.21        
Jul 13 23:55 Calm 7 Clear CLR 72 72     100%   73 30.21        
Jul 13 23:35 Calm 7 Partly Cloudy SCT003 72 72     100%   73 30.21        
Jul 13 23:15 Calm 7 Partly Cloudy SCT003 72 72     100%   73 30.2        
Jul 13 22:55 Calm 4 Fog/Mist CLR 72 72     100%   73 30.2        
Jul 13 22:35 Calm 10 Clear CLR 72 72     100%   73 30.19        
Jul 13 22:15 Calm 7 Clear CLR 72 72     100%   73 30.18        
Jul 13 21:55 Calm 7 Partly Cloudy SCT110 72 72     100%   73 30.18        
Jul 13 21:35 Calm 10 Light Rain SCT110 72 72     100%   73 30.18        
Jul 13 21:15 Calm 5 Rain SCT002 SCT110 72 72     100%   73 30.18        
Jul 13 20:55 Calm 0.5 Light Rain BKN002 BKN120 72 72     100%   73 30.18        
Jul 13 20:35 Calm 10 Light Rain SCT070 SCT120 73 73     100%   75 30.18        
Jul 13 20:15 Calm 10 Rain SCT070 SCT110 73 73     100%   75 30.18        
Jul 13 19:55 Calm 10 Rain SCT070 OVC110 73 73     100%   75 30.18        
Jul 13 19:35 Calm 1 Light Rain BKN070 OVC100 72 72     100%   73 30.17        
Jul 13 19:15 Calm 7 Drizzle SCT029 SCT080 BKN110 72 72     100%   73 30.17        
Jul 13 18:55 Calm 4 Rain SCT002 BKN100 OVC120 72 72     100%   73 30.17        
Jul 13 18:35 SSE 3 7 Light Rain SCT006 BKN070 OVC110 73 73     100%   75 30.16        
Jul 13 18:15 SW 3 1.25 Heavy Rain BKN006 BKN027 OVC038 73 72     94%   75 30.16        
Jul 13 17:55 W 6 10 Rain SCT028 OVC035 73 72     94%   75 30.15        
Jul 13 17:35 WNW 5 10 Light Rain BKN033 BKN039 OVC060 73 73     100%   75 30.14        
Jul 13 17:15 Calm 10 Partly Cloudy SCT055 73 73     100%   75 30.13        
Jul 13 16:55 Calm 10 Clear CLR 73 73     100%   75 30.12        
Jul 13 16:35 Calm 10 Clear CLR 75 72     89%   77 30.12        
Jul 13 16:15 Calm 10 Partly Cloudy SCT049 SCT065 SCT075 75 72     89%   77 30.11        
Jul 13 15:55 Calm 10 Light Rain SCT049 BKN060 BKN075 73 72     94%   75 30.13        
Jul 13 15:35 W 7 10 Rain SCT025 BKN044 OVC060 73 70     89%   75 30.13        
Jul 13 15:15 SW 9 7 Light Rain SCT035 SCT044 BKN050 81 73     79%   85 30.13        
Jul 13 14:55 S 7 10 Partly Cloudy SCT038 86 68     55%   89 30.11        
Jul 13 14:35 SW 7 10 Partly Cloudy SCT035 SCT050 SCT085 90 68     49%   93 30.11        
Jul 13 14:15 Calm 10 Mostly Cloudy SCT031 BKN037 BKN047 88 68     52%   91 30.11        
Jul 13 13:55 W 3 10 Partly Cloudy SCT029 SCT035 SCT041 86 70     59%   91 30.12        
Jul 13 13:35 WSW 6 10 Partly Cloudy SCT029 86 70     59%   91 30.13        
Jul 13 13:15 W 6 10 Clear CLR 86 70     59%   91 30.14        
Jul 13 12:55 SSW 8 10 Partly Cloudy SCT031 SCT039 SCT120 86 70     59%   91 30.14        
Jul 13 12:35 SW 7 10 Mostly Cloudy SCT025 SCT031 BKN120 84 68     58%   87 30.15        
Jul 13 12:15 S 6 10 Cloudy SCT026 SCT031 OVC110 82 70     66%   86 30.15        
Jul 13 11:55 SW 5 10 Cloudy OVC110 82 70     66%   86 30.16        
Jul 13 11:35 Calm 10 Cloudy SCT021 OVC110 82 70     66%   86 30.16        
Jul 13 11:15 Calm 10 Cloudy SCT021 SCT029 OVC100 81 72     74%   85 30.16        
Jul 13 10:55 W 5 10 Cloudy SCT018 SCT023 OVC100 81 70     70%   84 30.16        
Jul 13 10:35 Calm 10 Mostly Cloudy BKN016 BKN100 81 72     74%   85 30.15        
Jul 13 10:15 SW 6 10 Mostly Cloudy SCT016 BKN100 81 72     74%   85 30.15        
Jul 13 09:55 W 3 10 Mostly Cloudy SCT014 SCT019 BKN100 79 72     79%   82 30.15        
Jul 13 09:35 WSW 3 10 Partly Cloudy SCT016 79 72     79%   82 30.15        
Jul 13 09:15 Calm 10 Clear CLR 79 72     79%   82 30.14        
Jul 13 08:55 W 3 10 Clear CLR 77 73     89%   79 30.13        
Jul 13 08:35 W 3 10 Clear CLR 77 73     89%   79 30.12        
Jul 13 08:15 Calm 10 Clear CLR 75 73     94%   77 30.11        
Jul 13 07:55 Calm 10 Clear CLR 73 73     100%   75 30.1        
Jul 13 07:35 Calm 10 Clear CLR 73 73     100%   75 30.09        
Jul 13 07:15 Calm 10 Clear CLR 73 73     100%   75 30.08        
Jul 13 06:55 Calm 10 Clear CLR 73 73     100%   75 30.08        
Notice The following observation data may not be complete
Jul 13 06:35   10 Partly Cloudy SCT018 SCT039          %              
Jul 13 06:15 Calm 10 Clear CLR 72 72     100%   73 30.07        
Jul 13 05:55 Calm 7 Partly Cloudy SCT014 72 72     100%   73 30.06        
Jul 13 05:35 Calm 4 Fog/Mist OVC014 72 72     100%   73 30.05        
Jul 13 05:15 Calm 0.75 Fog/Mist BKN002 OVC014 72 72     100%   73 30.05        
Jul 13 04:55 Calm 0.75 Fog/Mist OVC002 72 72     100%   73 30.05        
Jul 13 04:35 Calm 10 Partly Cloudy SCT002 SCT050 SCT120 72 72     100%   73 30.05        
Jul 13 04:15 Calm 7 Clear CLR 72 72     100%   73 30.05        
Jul 13 03:55 Calm 7 Partly Cloudy SCT016 SCT050 72 72     100%   73 30.04        
Jul 13 03:35 Calm 10 Partly Cloudy SCT050 73 73     100%   75 30.04        
Jul 13 03:15 Calm 7 Mostly Cloudy SCT002 BKN095 73 73     100%   75 30.04        
Jul 13 02:55 Calm 10 Cloudy SCT002 SCT050 OVC085 73 73     100%   75 30.04        
Jul 13 02:35 ESE 5 7 Clear   73 73     100%   75 30.04        
Jul 13 02:15 Calm 5 Clear   72 72     100%   73 30.03        
Jul 13 01:55 Calm 10 Clear   73 73     100%   75 30.03        
Jul 13 01:35 Calm 10 Partly Cloudy SCT047 73 73     100%   75 30.04        
Jul 13 01:15 Calm 10 Partly Cloudy SCT042 SCT047 72 72     100%   73 30.04        
Jul 13 00:55 Calm 7 Partly Cloudy SCT044 SCT050 73 73     100%   75 30.05        
Jul 13 00:35 Calm 7 Partly Cloudy SCT050 SCT090 73 72     94%   75 30.04        
Jul 13 00:15 Calm 10 Cloudy SCT050 SCT060 OVC090 73 73     100%   75 30.04        
Jul 12 23:55 Calm 10 Light Rain SCT048 SCT060 OVC090 73 73     100%   75 30.04        
Jul 12 23:35 ESE 3 10 Light Rain SCT035 BKN060 OVC090 75 73     94%   77 30.03        
Jul 12 23:15 SSW 9 10 Cloudy SCT029 BKN039 OVC046 77 72     83%   78 30.04        
Jul 12 22:55 Calm 10 Cloudy SCT048 BKN060 OVC100 77 72     83%   78 30.03        
Jul 12 22:35 Calm 10 Rain SCT065 BKN085 BKN110 79 72     79%   82 30.03        
Jul 12 22:15 Calm 10 Partly Cloudy SCT060 SCT075 77 72     83%   78 30.03        
Jul 12 21:55 Calm 10 Mostly Cloudy BKN060 BKN075 77 72     83%   78 30.01        
Jul 12 21:35 Calm 10 Partly Cloudy SCT060 77 72     83%   78 30        
Jul 12 21:15 Calm 10 Partly Cloudy SCT050 SCT060 77 72     83%   78 29.99        
Jul 12 20:55 Calm 10 Partly Cloudy SCT050 SCT060 77 73     89%   79 29.99        
Jul 12 20:35 Calm 10 Clear CLR 77 72     83%   78 29.98        
Jul 12 20:15 Calm 10 Clear CLR 79 72     79%   82 29.99        
Jul 12 19:55 E 3 10 Clear CLR 79 72     79%   82 29.99        
Jul 12 19:35 NNE 3 10 Clear CLR 79 72     79%   82 29.98        
Jul 12 19:15 Calm 10 Partly Cloudy SCT016 SCT022 SCT028 81 72     74%   85 29.97        
Jul 12 18:55 NNE 3 10 Mostly Cloudy SCT016 SCT022 BKN042 82 75     79%   89 29.97        
Jul 12 18:35 Calm 10 Partly Cloudy SCT044 SCT050 86 72     62%   92 29.95        
Jul 12 18:15 Calm 10 Partly Cloudy SCT044 SCT050 86 73     66%   93 29.95        
Jul 12 17:55 Calm 10 Partly Cloudy SCT049 86 72     62%   92 29.95        
Jul 12 17:35 Calm 10 Clear CLR 88 68     52%   91 29.95        
Jul 12 17:15 Calm 10 Partly Cloudy SCT065 88 70     55%   93 29.95        
Jul 12 16:55 Calm 10 Clear CLR 88 68     52%   91 29.96        
Jul 12 16:35 Calm 10 Partly Cloudy SCT040 SCT047 90 68     49%   93 29.97        
Jul 12 16:15 Calm 10 Partly Cloudy SCT038 SCT049 90 68     49%   93 29.97        
Jul 12 15:55 SSW 5 10 Partly Cloudy SCT040 90 68     49%   93 29.97        
Jul 12 15:35 S 3 10 Mostly Cloudy SCT038 BKN044 88 68     52%   91 29.98        
Jul 12 15:15 S 3 10 Mostly Cloudy BKN036 BKN046 88 68     52%   91 29.98        
Jul 12 14:55 Calm 10 Cloudy BKN034 BKN044 OVC090 88 70     55%   93 29.98        
Jul 12 14:35 Calm 10 Cloudy BKN031 OVC041 86 70     59%   91 29.99        
Jul 12 14:15 Calm 10 Mostly Cloudy BKN033 BKN041 86 70     59%   91 30        
Jul 12 13:55 SSW 3 10 Partly Cloudy SCT029 SCT080 86 70     59%   91 30        
Jul 12 13:35 W 3 10 Mostly Cloudy SCT029 SCT042 BKN080 86 70     59%   91 30        
Jul 12 13:15 Calm 10 Mostly Cloudy BKN029 BKN045 BKN080 82 72     70%   87 30.01        
Jul 12 12:55 W 3 10 Partly Cloudy SCT027 SCT037 SCT047 84 72     66%   90 30.02        
Jul 12 12:35 WSW 3 10 Partly Cloudy SCT025 SCT037 SCT050 84 70     62%   88 30.02        
Jul 12 12:15 W 3 10 Cloudy SCT024 BKN035 OVC075 81 72     74%   85 30.02        
Jul 12 11:55 W 3 10 Cloudy BKN017 BKN024 OVC034 82 72     70%   87 30.02        
Jul 12 11:35 Calm 10 Cloudy BKN017 BKN024 OVC070 81 72     74%   85 30.03        
Jul 12 11:15 WNW 5 10 Cloudy SCT011 OVC070 81 72     74%   85 30.03        
Jul 12 10:55 Calm 10 Cloudy SCT011 OVC070 79 72     79%   82 30.02        
Jul 12 10:35 SW 6 10 Cloudy BKN011 BKN038 OVC060 79 73     84%   82 30.02        
Jul 12 10:15 SW 8 10 Cloudy BKN009 BKN014 OVC038 79 73     84%   82 30.02        
Jul 12 09:55 W 5 10 Cloudy BKN007 BKN014 OVC060 77 73     89%   79 30.02        
Jul 12 09:35 Calm 10 Cloudy OVC007 77 75     94%   79 30.01        
Jul 12 09:15 SW 3 10 Cloudy OVC007 75 75     100%   77 30.01        
Jul 12 08:55 SSW 3 10 Cloudy OVC005 73 73     100%   75 30.01        
Jul 12 08:35 SSE 3 7 Cloudy BKN005 BKN025 OVC044 73 73     100%   75 30        
Jul 12 08:15 Calm 10 Mostly Cloudy SCT002 SCT013 BKN026 73 73     100%   75 29.99        
Jul 12 07:55 Calm 10 Cloudy BKN013 BKN032 OVC047 73 73     100%   75 29.99        
Jul 12 07:35 SSW 3 10 Cloudy BKN013 OVC030 72 72     100%   73 29.98        
Jul 12 07:15 Calm 7 Cloudy SCT022 BKN030 OVC035 72 72     100%   73 29.98        
Jul 12 06:55 Calm 10 Cloudy SCT009 BKN014 OVC043 72 72     100%   73 29.98        
Jul 12 06:35 Calm 10 Cloudy BKN008 OVC014 72 72     100%   73 29.98        
Jul 12 06:15 Calm 5 Fog/Mist SCT002 BKN008 OVC012 72 72     100%   73 29.97        
Jul 12 05:55 Calm 7 Cloudy BKN002 BKN010 OVC019 72 72     100%   73 29.96        
Jul 12 05:35 Calm 2.5 Fog/Mist BKN002 BKN013 BKN034 72 72     100%   73 29.95        
Jul 12 05:15 Calm 4 Fog/Mist BKN002 BKN013 BKN033 72 72     100%   73 29.95        
Jul 12 04:55 Calm 1 Fog/Mist OVC002 70 70     100%     29.95        
Jul 12 04:35 Calm 1 Fog/Mist OVC002 72 72     100%   73 29.94        
Jul 12 04:15 Calm 1 Fog/Mist OVC002 72 72     100%   73 29.94        
Jul 12 03:55 Calm 0.75 Fog/Mist BKN002 OVC021 72 72     100%   73 29.95        
Jul 12 03:35 Calm 0.75 Fog/Mist OVC002 72 72     100%   73 29.95        
Jul 12 03:15 Calm 0.5 Fog OVC002 72 72     100%   73 29.96        
Jul 12 02:55 Calm 0.5 Fog OVC002 72 72     100%   73 29.97        
Jul 12 02:35 Calm 0.5 Fog OVC002 72 72     100%   73 29.97        
Jul 12 02:15 Calm 1 Fog/Mist OVC002 72 72     100%   73 29.98        
Jul 12 01:55 Calm 1 Fog/Mist BKN002 BKN041 72 72     100%   73 29.98        
Jul 12 01:35 Calm 10 Clear CLR 72 72     100%   73 29.98        
Jul 12 01:15 Calm 1.75 Fog/Mist SCT002 SCT036 BKN110 72 72     100%   73 29.98        
Jul 12 00:55 Calm 10 Partly Cloudy SCT002 SCT042 SCT110 72 72     100%   73 29.98        
Jul 12 00:35 SE 5 10 Mostly Cloudy SCT002 SCT080 BKN110 72 72     100%   73 29.97        
Jul 12 00:15 Calm 7 Rain OVC110 72 72     100%   73 29.98        
Jul 11 23:55 NE 5 7 Rain SCT028 BKN110 73 73     100%   75 29.99        
Jul 11 23:35 Calm 10 Light Rain SCT085 BKN100 73 73     100%   75 29.99        
Jul 11 23:15 NE 5 5 Light Rain SCT010 SCT049 OVC100 73 73     100%   75 29.99        
Jul 11 22:55 Calm 3 Heavy Rain SCT008 BKN036 OVC070 73 72     94%   75 30        
Jul 11 22:35 WSW 5 10 Cloudy SCT010 BKN027 OVC041 75 73     94%   77 29.99        
Jul 11 22:15 W 6 10 Cloudy SCT007 BKN040 OVC090 73 73     100%   75 29.98        
Jul 11 21:55 Calm 4 Fog/Mist SCT080 OVC090 75 73     94%   77 29.95        
Jul 11 21:35 ENE 6 7 Cloudy SCT041 SCT060 OVC080 77 75     94%   79 29.95        
Jul 11 21:15 NNE 5 1.75 Heavy Rain SCT023 BKN043 OVC060 75 73     94%   77 29.94        
Jul 11 20:55 Calm 5 Rain SCT037 BKN050 OVC095 77 75     94%   79 29.95        
Jul 11 20:35 WSW 6 10 Light Rain SCT037 BKN048 OVC090 79 73     84%   82 29.95        
Jul 11 20:15 Calm 10 Mostly Cloudy SCT039 SCT047 BKN085 79 72     79%   82 29.94        
Jul 11 19:55 Calm 10 Mostly Cloudy SCT045 BKN055 BKN085 81 73     79%   85 29.93        
Jul 11 19:35 Calm 10 Partly Cloudy SCT045 81 73     79%   85 29.93        
Jul 11 19:15 Calm 10 Partly Cloudy SCT080 82 72     70%   87 29.92        
Jul 11 18:55 Calm 10 Partly Cloudy SCT080 82 72     70%   87 29.91        
Jul 11 18:35 Calm 10 Mostly Cloudy SCT070 BKN080 86 72     62%   92 29.91        
Jul 11 18:15 Calm 10 Mostly Cloudy SCT070 BKN080 86 72     62%   92 29.92        
Jul 11 17:55 SSW 5 10 Partly Cloudy SCT025 SCT045 SCT060 88 72     59%   94 29.92        
Jul 11 17:35 S 5 10 Partly Cloudy SCT026 SCT039 SCT045 88 72     59%   94 29.92        
Jul 11 17:15 SSW 5 10 Partly Cloudy SCT036 88 70     55%   93 29.92        
Jul 11 16:55 S 7 10 Partly Cloudy SCT036 90 68     49%   93 29.92        
Jul 11 16:35 SSW 6 10 Partly Cloudy SCT048 SCT055 90 68     49%   93 29.92        
Jul 11 16:15 S 5 10 Partly Cloudy SCT049 90 70     52%   95 29.94        
Jul 11 15:55 SSE 3 10 Clear CLR 90 70     52%   95 29.94        
Jul 11 15:35 S 5 10 Partly Cloudy SCT035 SCT049 SCT080 90 70     52%   95 29.95        
Jul 11 15:15 ESE 5 10 Mostly Cloudy SCT035 BKN048 BKN060 88 70     55%   93 29.96        
Jul 11 14:55 Calm 10 Mostly Cloudy BKN037 BKN042 BKN050 88 70     55%   93 29.96        
Jul 11 14:35 Calm 10 Partly Cloudy SCT035 88 70     55%   93 29.96        
Jul 11 14:15 Calm 10 Clear CLR 88 70     55%   93 29.97        
Jul 11 13:55 Calm 10 Clear CLR 88 70     55%   93 29.98        
Jul 11 13:35 SSW 3 10 Clear CLR 88 70     55%   93 29.99        
Jul 11 12:35 SW 7 10 Partly Cloudy SCT029 86 70     59%   91 30.02        
Jul 11 11:55 S 3 10 Clear CLR 84 68     58%   87 30.03        
Jul 11 11:35 Calm 10 Mostly Cloudy SCT025 SCT030 BKN047 82 68     62%   85 30.03        
Jul 11 10:55 SSW 6 10 Cloudy BKN016 BKN021 OVC033 81 72     74%   85 30.03        
Jul 11 10:15 SSE 3 10 Cloudy BKN012 OVC024 81 73     79%   85 30.03        
Jul 11 09:55 SSW 5 10 Cloudy OVC012 79 73     84%   82 30.04        
Jul 11 09:35 Calm 10 Cloudy BKN010 OVC015 79 73     84%   82 30.04        
Jul 11 09:15 Calm 10 Cloudy OVC008 79 73     84%   82 30.04        
Jul 11 08:55 Calm 10 Mostly Cloudy BKN008 79 73     84%   82 30.03        
Jul 11 08:35 Calm 10 Partly Cloudy SCT006 77 73     89%   79 30.03        
Jul 11 08:15 Calm 10 Clear CLR 77 75     94%   79 30.02        
Jul 11 07:55 Calm 10 Clear CLR 75 73     94%   77 30.02        
Jul 11 07:35 Calm 5 Fog/Mist CLR 73 73     100%   75 30.03        
Jul 11 07:15 Calm 7 Partly Cloudy SCT021 73 73     100%   75 30.02        
Jul 11 06:55 Calm 10 Mostly Cloudy BKN021 73 73     100%   75 30.02        
Jul 11 06:35 Calm 7 Partly Cloudy SCT019 73 73     100%   75 30.02        
Notice The following observation data may not be complete
Jul 11 06:15   4 Fog/Mist CLR          %              
Notice The following observation data may not be complete
Jul 11 05:55   7 Clear CLR          %              
Jul 11 05:15 Calm 10 Cloudy OVC015 75 73     94%   77 30.01        
Jul 11 04:55 Calm 7 Partly Cloudy SCT015 SCT043 73 73     100%   75 30.01        
Jul 11 04:15 Calm 10 Clear CLR 75 73     94%   77 30        
Jul 11 03:35 Calm 10 Clear CLR 75 73     94%   77 30        
Jul 11 03:15 Calm 7 Clear CLR 75 73     94%   77 30.01        
Jul 11 02:55 Calm 10 Partly Cloudy SCT031 77 73     89%   79 30.01        
Jul 11 02:35 Calm 10 Partly Cloudy SCT030 77 73     89%   79 30.02        
Jul 11 02:15 Calm 7 Partly Cloudy SCT030 75 73     94%   77 30.03        
Jul 11 01:55 Calm 10 Clear CLR 77 73     89%   79 30.03        
Jul 11 01:35 Calm 10 Clear CLR 79 73     84%   82 30.03        
Jul 11 01:15 Calm 10 Partly Cloudy SCT041 79 73     84%   82 30.03        
Jul 11 00:55 Calm 10 Mostly Cloudy SCT037 BKN043 79 73     84%   82 30.03        
Jul 11 00:35 Calm 10 Mostly Cloudy BKN037 79 73     84%   82 30.04        
Jul 11 00:15 Calm 10 Mostly Cloudy BKN039 79 73     84%   82 30.03        
Jul 10 23:55 Calm 10 Mostly Cloudy BKN039 79 73     84%   82 30.03        
Jul 10 23:35 Calm 10 Clear CLR 81 73     79%   85 30.03        
Jul 10 23:15 Calm 10 Clear CLR 81 73     79%   85 30.04        
Jul 10 22:35 Calm 10 Clear CLR 81 73     79%   85 30.03        
Jul 10 22:15 Calm 10 Clear CLR 81 73     79%   85 30.03        
Jul 10 21:55 Calm 10 Clear CLR 82 72     70%   87 30.02        
Jul 10 21:35 Calm 10 Clear CLR 82 72     70%   87 30.02        
Jul 10 21:15 Calm 10 Clear CLR 86 72     62%   92 30.03        
Jul 10 20:55 Calm 10 Clear CLR 86 72     62%   92 30.02        
Jul 10 20:35 Calm 10 Clear CLR 86 72     62%   92 30.02        
Jul 10 20:15 Calm 10 Clear CLR 88 70     55%   93 30.01        
Jul 10 19:35 ESE 5 10 Clear CLR 90 70     52%   95 30.01        
Jul 10 19:15 Calm 10 Clear CLR 90 68     49%   93 30.01        
Jul 10 18:55 E 5 10 Clear CLR 91 68     46%   96 30        
Jul 10 18:35 E 5 10 Clear CLR 90 68     49%   93 30        
Jul 10 18:15 E 5 10 Clear CLR 91 68     46%   96 29.99        
Jul 10 17:35 Calm 10 Clear CLR 91 68     46%   96 30        
Jul 10 17:15 Calm 10 Partly Cloudy SCT039 91 68     46%   96 30.01        
Jul 10 16:15 Calm 10 Partly Cloudy SCT034 91 68     46%   96 30.03        
Jul 10 15:35 Calm 10 Partly Cloudy SCT034 90 70     52%   95 30.06        
Jul 10 15:15 ESE 5 10 Clear CLR 90 70     52%   95 30.06        
Jul 10 14:55 Calm 10 Partly Cloudy SCT065 90 70     52%   95 30.07        
Jul 10 14:30 Calm 10 Partly Cloudy SCT032 SCT039 SCT065 88 70     55%   93 30.08        
Jul 10 14:15 S 3 10 Mostly Cloudy SCT032 BKN039 BKN065 88 70     55%   93 30.08        
Jul 10 13:55 Calm 10 Partly Cloudy SCT030 SCT060 90 70     52%   95 30.09        
Jul 10 13:35 Calm 10 Clear   90 70     52%   95 30.09        
Jul 10 13:15 E 5 10 Clear   90 70     52%   95 30.09        
Jul 10 12:55 E 7 10 Clear   88 70     55%   93 30.1        
Jul 10 12:35 ESE 5 10 Mostly Cloudy SCT024 BKN029 BKN037 88 70     55%   93 30.1        
Notice The following observation data may not be complete
Jul 10 12:15   10 Mostly Cloudy SCT025 BKN029          %              
Jul 10 11:55 ESE 6 10 Partly Cloudy SCT023 86 70     59%   91 30.11        
Jul 10 11:35 ENE 7 10 Partly Cloudy SCT020 84 72     66%   90 30.1        
Jul 10 11:15 ENE 3 10 Mostly Cloudy SCT016 BKN028 84 72     66%   90 30.1        
Jul 10 10:55 ENE 5 10 Cloudy SCT014 OVC025 82 72     70%   87 30.11        
Jul 10 10:35 E 5 10 Cloudy BKN014 OVC023 81 72     74%   85 30.11        
Jul 10 10:15 ENE 3 10 Cloudy BKN012 OVC023 81 72     74%   85 30.12        
Jul 10 09:55 ESE 5 10 Cloudy BKN010 OVC025 81 72     74%   85 30.12        
Jul 10 09:35 E 5 10 Cloudy SCT010 OVC023 79 73     84%   82 30.12        
Notice The following observation data may not be complete
Jul 10 09:15   10 Cloudy SCT010 OVC020          %              
Jul 10 08:55 E 3 10 Cloudy OVC008 77 73     89%   79 30.12        
Jul 10 08:35 E 3 10 Cloudy BKN010 OVC017 77 73     89%   79 30.12        
Jul 10 08:15 E 3 10 Cloudy BKN010 BKN017 OVC022 77 73     89%   79 30.12        
Jul 10 07:55 E 5 10 Cloudy OVC010 77 73     89%   79 30.11        
Jul 10 07:35 E 3 10 Cloudy OVC008 77 73     89%   79 30.1        
Jul 10 07:15 E 3 10 Cloudy BKN008 OVC028 75 73     94%   77 30.1        
Jul 10 06:55 Calm 10 Cloudy SCT008 SCT014 OVC028 75 73     94%   77 30.09        
May 15 14:55 ESE 11 10 Mostly Cloudy SCT028 BKN032 BKN120 82        %     30.01        
May 15 13:55 ENE 6 10 Partly Cloudy SCT120 81 63     54%   82 30.03        
May 15 07:35 Calm 10 Mostly Cloudy SCT027 BKN036 BKN070 70 63     78%     30.07        
May 14 21:35 Calm 10 Clear CLR 81        %     30        
May 14 20:15 Calm 10 Clear CLR 84        %     30        
May 14 11:55 WNW 5 10 Clear CLR 86        %     30.08        
Notice The following observation data may not be complete
May 14 09:55 Calm 10 Clear CLR   61      %     30.09        
May 14 08:35 Calm 10 Clear CLR 68 63     83%     30.09        
May 14 05:35 Calm 7 Clear CLR 63 61     94%     30.05        
May 14 00:35 Calm 10 Clear CLR 70 61     73%              
May 13 20:55 Calm 10 Clear CLR 79 59     51%   79 30.08        
May 13 13:15 WNW 10 10 Clear   86        %     30.15        
May 13 05:55 Calm 10 Clear CLR 59 54     82%     30.13        
May 13 05:15 Calm 10 Clear CLR 61 57     88%     30.12        
May 13 01:15 Calm 10 Clear CLR 63 55     77%     30.12        
May 12 18:15 WNW 5 10 Clear CLR 88        %     30.13        
May 12 14:35 W 3 10 Clear CLR 88        %     30.17        
May 12 08:15 Calm 7 Clear CLR 64 61     88%     30.2        
May 12 07:35 Calm 7 Clear CLR 63 61     94%     30.19        
May 12 04:35 Calm 4 Clear   63 61     94%     30.15        
May 11 21:55 Calm 10 Clear CLR 72 63     73%   72 30.13        
Notice The following observation data may not be complete
May 11 20:55 Calm 10 Clear CLR          %     30.12        
May 11 19:55 Calm 10 Clear CLR 82        %     30.11        
May 11 19:35 Calm 10 Clear CLR 84        %     30.11        
May 11 14:35 Calm 10 Clear CLR 86        %     30.14        
May 11 11:35 WNW 8 10 Clear CLR 81        %     30.18        
May 11 09:55 Calm 10 Clear CLR 73 63     69%   74 30.17        
Jun 12 08:55 Calm 10 Cloudy BKN008 OVC012 72 66     83%   72 30.25        
Jun 12 02:35 Calm 10 Clear CLR 73 64     73%   74 30.21        
Jun 11 23:35 E 3 10 Mostly Cloudy SCT029 BKN049 77 63     61%   77 30.21        
Jun 11 22:55 ESE 3 10 Partly Cloudy SCT049 77        %     30.21        
Jun 11 19:55 Calm 10 Partly Cloudy SCT055 82        %     30.17        
Jun 11 16:15 E 8 10 Partly Cloudy SCT038 88        %     30.2        
Jun 11 15:15 E 6 10 Mostly Cloudy SCT037 SCT042 BKN055 86        %     30.22        
Jun 11 07:35 Calm 10 Partly Cloudy SCT008 64 61     88%     30.21        
Jun 10 23:15 Calm 10 Clear CLR 73        %     30.18        
Jun 10 22:35 Calm 10 Clear CLR 75        %     30.16        
Jun 10 19:55 Calm 10 Mostly Cloudy BKN060 BKN075 82        %     30.11        
Jun 10 19:35 Calm 10 Partly Cloudy SCT060 81        %     30.1        
Jun 10 16:15 ENE 5 10 Partly Cloudy SCT055 SCT080 86        %     30.12        
Jun 10 11:35 Calm 10 Partly Cloudy SCT070 79        %     30.15        
Jun 10 11:15 Calm 10 Partly Cloudy SCT060 SCT070 77        %     30.16        
Jun 10 10:55 Calm 10 Mostly Cloudy SCT050 BKN070 77        %     30.16        
Jun 10 05:55 Calm 5 Fog/Mist CLR 59 55     88%     30.07        
Jun 10 05:15 Calm 5 Fog/Mist CLR 59 55     88%     30.06        
Jun 09 18:15 WNW 7 10 Clear CLR 81 46     30%   80 29.97        
Notice The following observation data may not be complete
Jun 09 15:35   10 Partly Cloudy SCT070          %              
Notice The following observation data may not be complete
Jun 09 15:15   10 Clear CLR          %              
Jun 09 14:55 WNW 3 10 Clear CLR 81        %     30        
Jun 09 09:55 Calm 10 Clear CLR 70 55     60%     30.02        
Jun 09 06:15 Calm 5 Fog/Mist CLR 59 55     88%     29.97        
Jun 08 23:35 Calm 10 Clear CLR 66 59     78%     29.93        
Jun 08 13:35 SSW 3 10 Partly Cloudy SCT036 SCT060 SCT085 75 48     38%   74 29.95        
Jun 08 12:35 ENE 3 10 Partly Cloudy SCT031 SCT041 SCT050 73        %     29.96        
Jun 08 10:15 ENE 7 10 Partly Cloudy SCT016 SCT100 70 54     56%     29.97        
Jun 08 09:35 ENE 5 10 Partly Cloudy SCT012 68 54     60%     29.97        
Jun 07 23:35 Calm 10 Light Drizzle SCT037 SCT042 OVC050 66 59     78%     29.91        
Jun 07 22:55 Calm 10 Cloudy BKN036 BKN055 OVC070 68 55     64%     29.91        
Jun 07 19:55 E 5 10 Mostly Cloudy SCT050 BKN075 77 52     41%   76 29.86        
Jun 07 16:15 Calm 10 Mostly Cloudy SCT060 BKN090 77 52     41%   76 29.85        
Jun 07 13:35 E 3 10 Clear CLR 79        %     29.86        
Notice The following observation data may not be complete
Jun 07 09:35   10 Mostly Cloudy BKN060 BKN070          %              
Jun 06 15:15 WNW 3 10 Clear CLR 79 61     54%   79 29.8        
Jun 06 06:35 Calm 1.25 Fog/Mist BKN009 70 66     88%     29.84        
Jun 06 05:55 Calm 1.5 Light Rain SCT005 BKN120 70 68     94%     29.84        
Notice The following observation data may not be complete
Jun 06 04:35   5 Fog/Mist OVC003          %              
Notice The following observation data may not be complete
Jun 06 03:35   7 Partly Cloudy SCT003 SCT080 SCT120          %              
Jun 06 01:35 Calm 7 Partly Cloudy SCT120 70 68     94%     29.86        
Jun 05 22:55 W 3 10 Clear   72 68     88%   73 29.87